Content
SEND FEEDBACK

Daily
Averages
Monthly
Summary
Canada

BANFF, ALBERTA


Home > North America > Canada > Alberta
Elevation: 4583 feet     Latitude: 51 11N     Longitude: 115 34W

WEATHER
 
SELECT A DAY
Number of Records: 134,341;   Date Range: 1/1/95 - 10/23/14
 
SHARE

PRINT THIS DATA

[ ← Previous Day ]
WEATHER ALMANAC - FEBRUARY 1, 2013
[ Next Day → ]
[ °C ]   °F
Weather ElementAverageHighLow
Temperature33.4 °F41.2 °F (3:00 pm)28.2 °F (7:00 am)
Dewpoint19.5 °F25 °F (1:00 am)13.5 °F (3:00 pm)
Humidity59.5 %83 % (1:00 am)32 % (3:00 pm)
Barometer30.13 in30.22 in (9:00 pm)30.03 in (1:00 am)
Wind Speed5.3 mph8.1 mph (5:00 am)
Weather ElementAverage
Wind DirectionWSW (248.2 °)

Weather ElementTotal
Precipitation---
Heating Degree Days30.3 (Base 65)
Averaged from 22 records on February 1, 2013
WEATHER CONDITIONS BREAKOUT
WIND DIRECTION BREAKOUT
WEATHER BY HOUR - FEBRUARY 1, 2013
[ °C ]   °F
Local TimeTemperatureDewpointHumidityBarometerVisibilityWind DirectionWind SpeedGust SpeedPrecipitationEventsConditions
1:00 AM29.7 °F25.0 °F83 %30.03 inWSW (250°)5.8 mph
2:00 AM29.5 °F24.8 °F83 %30.04 inWSW (240°)5.8 mph
3:00 AM29.5 °F24.4 °F81 %30.07 inSW (230°)6.9 mph
4:00 AM29.3 °F23.9 °F80 %30.07 inWest (260°)5.8 mph
5:00 AM29.3 °F23.4 °F78 %30.08 inWSW (240°)8.1 mph
6:00 AM28.4 °F22.3 °F78 %30.09 inWSW (250°)6.9 mph
7:00 AM28.2 °F22.1 °F78 %30.11 inWSW (240°)6.9 mph
8:00 AM28.6 °F21.7 °F76 %30.13 inWSW (250°)5.8 mph
10:00 AM30.9 °F18.3 °F60 %30.14 inSSW (210°)1.2 mph
11:00 AM34.7 °F16.9 °F48 %30.13 inWSW (240°)6.9 mph
12:00 PM38.7 °F14.4 °F37 %30.12 inWSW (240°)6.9 mph
1:00 PM38.3 °F16.0 °F40 %30.12 inWSW (240°)5.8 mph
2:00 PM39.6 °F14.4 °F36 %30.11 inWest (260°)5.8 mph
3:00 PM41.2 °F13.5 °F32 %30.12 inWNW (290°)4.6 mph
4:00 PM39.7 °F15.6 °F38 %30.14 inWest (280°)4.6 mph
5:00 PM37.2 °F17.1 °F44 %30.17 inWest (270°)4.6 mph
6:00 PM36.1 °F17.6 °F47 %30.19 inWest (270°)5.8 mph
7:00 PM33.4 °F18.3 °F54 %30.20 inWest (260°)3.5 mph
8:00 PM33.6 °F19.2 °F56 %30.21 inWSW (250°)4.6 mph
9:00 PM32.9 °F19.8 °F59 %30.22 inWSW (240°)5.8 mph
10:00 PM33.1 °F20.3 °F59 %30.21 inWSW (240°)2.3 mph
11:00 PM32.0 °F20.5 °F63 %30.21 inSSW (210°)2.3 mph
Hourly data recorded from CWZG, located miles away from Banff, Alberta







STORIES FROM OUR PARTNERS